Location: D�derode
(51.8092°N, 10.1065°E)
Time: 04:23:02
(UTC+00:00)

Cosmos 1869 Rocket - Pass Details

Date: 19 April 2021
Orbit: 604 x 634 km, 82.5° (Epoch: 11 May)

Event Time Altitude Azimuth Distance (km) Brightness Sun altitude
Rises 22:17:57 0° 2° (N) 2,903 8.2 -25.3°
Reaches altitude 10° 22:21:22 10° 30° (NNE) 1,984 6.7 -25.5°
Maximum altitude 22:23:28 13° 59° (ENE) 1,772 6.0 -25.6°
Enters shadow 22:24:20 13° 72° (ENE) 1,805 6.0 -25.6°
